Location: Newark
(22.3060°N, 114.2134°E)
Time: 10:58:14
(UTC+00:00)

ISS - Pass Details

Date: 08 April 2020
Orbit: 417 x 419 km, 51.6° (Epoch: 03 June)

Event Time Altitude Azimuth Distance (km) Brightness Sun altitude
Rises 12:06:36 0° 320° (NW) 2,352 1.0 -20.1°
Reaches altitude 10° 12:08:42 10° 320° (NW) 1,487 -0.2 -20.6°
Enters shadow 12:11:40 68° 322° (NW) 448 -3.6 -21.3°
